Location: La Trinit�
(48.1620°N, 3.4512°W)
Time: 15:09:17
(UTC+00:00)

USA 305 - Pass Details

Date: 08 May 2021
Orbit: 567 x 573 km, 54.0° (Epoch: 07 May)

Event Time Altitude Azimuth Distance (km) Brightness Sun altitude
Rises 21:56:13 0° 297° (WNW) 2,775 7.5 -18.0°
Reaches altitude 10° 21:58:29 10° 301° (WNW) 1,876 6.5 -18.2°
Maximum altitude 22:02:44 64° 23° (NNE) 635 3.2 -18.6°
Enters shadow 22:04:41 30° 96° (E) 1,031 3.9 -18.7°
